Hourly Data Report for July 23, 2021

POND INLET A
NUNAVUT
Current Station Operator: NAVCAN

72°41'22.000" N
77°58'08.000" W
61.60 m
2403206
71095
YIO

Download Data

Hourly Data (July 2021)
Hourly Data Report for July 23, 2021
TIME
LST
Temp Definition
°C
Dew Point Definition
°C
Rel Hum Definition
%
Precip. Amount Definition
mm

Wind Dir Definition
10's deg

Wind Spd Definition
km/h
Visibility Definition
km
Stn Press Definition
kPa
Hmdx Definition


Wind Chill Definition


Weather Definition


00:00 1.0 0.6 97 0.0 36 9 16.1 99.55     LegendNANA
01:00 0.7 0.3 97 0.0 LegendMM 4 16.1 99.58     LegendNANA
02:00 0.3 0.0 98 0.0 LegendMM 4 0.6 99.58     Fog
03:00 0.3 -0.3 96 0.0 14 5 16.1 99.60     LegendNANA
04:00 0.1 -0.2 98 0.0   0 16.1 99.62     LegendNANA
05:00 0.1 0.0 99 0.0   0 0.4 99.66     Fog
06:00 0.0 -0.1 99 0.0 LegendMM 4 0.2 99.67   -1 Fog
07:00 1.8 1.7 99 0.0 31 8 8.1 99.66     Fog
08:00 3.1 2.1 93 0.0 LegendMM 11 16.1 99.68     LegendNANA
09:00 1.5 1.0 97 0.0 32 5 14.5 99.69     LegendNANA
10:00 1.6 0.9 95 0.0 31 9 16.1 99.71     LegendNANA
11:00 2.2 1.4 94 0.0 27 5 16.1 99.74     LegendNANA
12:00 4.1 0.2 76 0.0 LegendMM 4 16.1 99.74     LegendNANA
13:00 5.5 -1.0 63 0.0 1 5 16.1 99.73     LegendNANA
14:00 3.8 1.1 83 0.0 26 9 16.1 99.73     LegendNANA
15:00 4.9 1.5 79 0.0 31 9 16.1 99.73     LegendNANA
16:00 4.4 1.5 82 0.0 2 5 16.1 99.73     LegendNANA
17:00 5.4 1.9 78 0.0 5 13 16.1 99.72     LegendNANA
18:00 4.7 1.8 82 0.0 5 9 16.1 99.72     LegendNANA
19:00 5.6 0.2 68 0.0 5 15 16.1 99.73     LegendNANA
20:00 5.5 1.5 76 0.0 5 15 16.1 99.71     LegendNANA
21:00 5.6 1.2 73 0.0 6 18 16.1 99.67     LegendNANA
22:00 6.2 0.8 68 0.0 16 15 16.1 99.67     LegendNANA
23:00 5.3 1.6 77 0.0 4 5 16.1 99.66     LegendNANA

Notes on Data Quality.

Legend

  • E = Estimated
  • M = Missing
  • NA = Not Available*
  • [empty] = Indicates an unobserved value
Date modified: